Date String (YYYY-MM-DD hh:mm:ss) UTC,Instrument flags,absolute air pressure of the measurement (hPa),sample flow rate (lpm),inlet stack bypass flow (lpm),air temperature of the measurement (°C),ambient temperature measured by the external sensor (°C),aerosol sample conditioner tube jacket temperature (°C),OPC LED temperature (°C),internal box temperature (°C),relative humidity of the measurement (%),span deviation,mass concentration of particles derived from Lorenz-Mie calculation of OPC scattering (μg/m³),mass concentration of particles derived from Lorenz-Mie calculation of OPC scattering (μg/m³),mass concentration of particles derived from Lorenz-Mie calculation of OPC scattering (μg/m³)
DateTimeUTC,F1_M11,P_M11,Q1_M11,Q2_M11,T1_M11,T2_M11,T3_M11,T4_M11,T5_M11,U1_M11,ZSPAN_M11,X0_M11,X2_M11,X1_M11
2023-12-26 19:00:00,SystemResetWarning,0823.1,5.00,000.00,018.8,017.9,000.0,027.2,020.0,15.1,0000.0,0006.06,0002.36,0001.56
2023-12-26 19:01:00,SystemResetWarning,0823.0,5.01,000.00,018.8,017.9,000.0,027.2,020.0,15.1,0000.0,0006.05,0002.39,0001.55
2023-12-26 19:02:00,SystemResetWarning,0823.1,5.01,000.00,018.8,017.9,000.0,027.2,020.0,15.1,0000.0,0005.45,0002.40,0001.54
2023-12-26 19:03:00,SystemResetWarning,0823.1,4.99,000.00,018.8,017.8,000.0,027.2,020.0,14.7,0000.0,0005.26,0002.35,0001.54
2023-12-26 19:04:00,SystemResetWarning,0823.0,4.99,000.00,018.8,017.8,000.0,027.2,020.0,14.8,0000.0,0005.18,0002.30,0001.53
2023-12-26 19:05:00,SystemResetWarning,0823.0,5.00,000.00,018.8,017.8,000.0,027.2,020.0,15.1,0000.0,0005.85,0002.33,0001.54
2023-12-26 19:06:00,SystemResetWarning,0823.0,5.00,000.00,018.8,017.8,000.0,027.2,020.0,15.2,0000.0,0007.14,0002.39,0001.56
2023-12-26 19:07:00,SystemResetWarning,0823.0,5.01,000.00,018.8,017.8,000.0,027.2,020.0,14.8,0000.0,0006.97,0002.44,0001.59
2023-12-26 19:08:00,SystemResetWarning,0823.0,5.00,000.00,018.8,017.8,000.0,027.2,020.0,15.0,0000.0,0006.92,0002.47,0001.61
2023-12-26 19:09:00,SystemResetWarning,0822.9,4.99,000.00,018.8,017.9,000.0,027.2,020.0,15.1,0000.0,0007.05,0002.52,0001.63
2023-12-26 19:10:00,SystemResetWarning,0823.0,4.99,000.00,018.8,017.9,000.0,027.2,020.0,14.7,0000.0,0006.90,0002.46,0001.64
2023-12-26 19:11:00,SystemResetWarning,0823.0,5.00,000.00,018.8,017.9,000.0,027.2,020.0,14.7,0000.0,0006.75,0002.42,0001.65
2023-12-26 19:12:00,SystemResetWarning,0822.9,5.00,000.00,018.8,017.9,000.0,027.2,020.0,15.0,0000.0,0006.89,0002.45,0001.66
2023-12-26 19:13:00,SystemResetWarning,0822.9,5.00,000.00,018.8,017.9,000.0,027.2,020.0,15.0,0000.0,0006.85,0002.44,0001.66
2023-12-26 19:14:00,SystemResetWarning,0822.8,5.00,000.00,018.8,017.9,000.0,027.2,020.0,14.7,0000.0,0006.88,0002.47,0001.66
2023-12-26 19:15:00,SystemResetWarning,0823.0,5.00,000.00,018.8,017.9,000.0,027.2,020.0,14.6,0000.0,0006.96,0002.49,0001.66
2023-12-26 19:16:00,SystemResetWarning,0823.1,5.01,000.00,018.8,017.9,000.0,027.2,020.0,14.5,0000.0,0006.31,0002.44,0001.65
2023-12-26 19:17:00,SystemResetWarning,0822.9,5.00,000.00,018.8,017.9,000.0,027.2,020.0,14.7,0000.0,0004.85,0002.37,0001.65
2023-12-26 19:18:00,SystemResetWarning,0823.3,4.99,000.00,018.8,017.9,000.0,027.2,020.0,14.9,0000.0,0004.77,0002.32,0001.64
2023-12-26 19:19:00,SystemResetWarning,0823.2,4.99,000.00,018.8,017.9,000.0,027.2,020.0,14.8,0000.0,0004.78,0002.31,0001.62
2023-12-26 19:20:00,SystemResetWarning,0823.3,5.00,000.00,018.8,017.9,000.0,027.2,020.0,14.9,0000.0,0004.75,0002.28,0001.61
2023-12-26 19:21:00,SystemResetWarning,0823.2,5.00,000.00,018.8,017.9,000.0,027.2,020.0,14.9,0000.0,0005.14,0002.31,0001.59
2023-12-26 19:22:00,SystemResetWarning,0823.1,5.02,000.00,018.8,017.8,000.0,027.2,020.0,15.2,0000.0,0005.40,0002.31,0001.58
2023-12-26 19:23:00,SystemResetWarning,0823.1,4.99,000.00,018.8,017.8,000.0,027.2,020.0,14.9,0000.0,0005.53,0002.29,0001.57
2023-12-26 19:24:00,SystemResetWarning,0823.3,4.99,000.00,018.8,017.8,000.0,027.2,020.0,14.9,0000.0,0005.60,0002.26,0001.56
2023-12-26 19:25:00,SystemResetWarning,0823.1,5.00,000.00,018.8,017.9,000.0,027.2,020.0,14.8,0000.0,0005.58,0002.22,0001.55
2023-12-26 19:26:00,SystemResetWarning,0823.3,5.02,000.00,018.8,017.9,000.0,027.2,020.0,14.7,0000.0,0005.70,0002.18,0001.54
2023-12-26 19:27:00,SystemResetWarning,0822.8,5.01,000.00,018.8,017.9,000.0,027.2,020.0,14.6,0000.0,0006.23,0002.21,0001.54
2023-12-26 19:28:00,SystemResetWarning,0822.7,4.99,000.00,018.8,017.9,000.0,027.2,020.0,14.5,0000.0,0006.24,0002.23,0001.53
2023-12-26 19:29:00,SystemResetWarning,0822.7,4.99,000.00,018.8,017.8,000.0,027.2,020.0,14.3,0000.0,0007.18,0002.24,0001.53
2023-12-26 19:30:00,SystemResetWarning,0822.7,5.00,000.00,018.8,017.8,000.0,027.2,020.0,14.5,0000.0,0008.97,0002.25,0001.53
2023-12-26 19:31:00,SystemResetWarning,0822.7,5.00,000.00,018.8,017.8,000.0,027.2,020.0,14.2,0000.0,0009.72,0002.28,0001.53
2023-12-26 19:32:00,SystemResetWarning,0822.8,5.00,000.00,018.8,017.8,000.0,027.2,020.0,14.6,0000.0,0009.78,0002.28,0001.52
2023-12-26 19:33:00,SystemResetWarning,0822.8,5.01,000.00,018.8,017.9,000.0,027.2,020.0,14.7,0000.0,0009.68,0002.30,0001.51
2023-12-26 19:34:00,SystemResetWarning,0822.7,5.00,000.00,018.8,017.9,000.0,027.2,020.0,15.1,0000.0,0009.56,0002.28,0001.52
2023-12-26 19:35:00,SystemResetWarning,0822.8,5.01,000.00,018.8,017.9,000.0,027.2,020.0,14.9,0000.0,0009.82,0002.32,0001.53
2023-12-26 19:36:00,SystemResetWarning,0822.7,5.00,000.00,018.8,017.9,000.0,027.2,020.0,14.8,0000.0,0009.97,0002.34,0001.55
2023-12-26 19:37:00,SystemResetWarning,0822.6,5.00,000.00,018.8,017.9,000.0,027.2,020.0,14.9,0000.0,0009.95,0002.41,0001.57
2023-12-26 19:38:00,SystemResetWarning,0822.6,5.00,000.00,018.8,017.9,000.0,027.2,020.0,14.9,0000.0,0009.68,0002.43,0001.59
2023-12-26 19:39:00,SystemResetWarning,0822.6,4.99,000.00,018.8,017.9,000.0,027.2,020.0,15.0,0000.0,0009.58,0002.44,0001.60
2023-12-26 19:40:00,SystemResetWarning,0822.9,5.00,000.00,018.8,017.9,000.0,027.2,020.0,15.0,0000.0,0009.08,0002.43,0001.60
2023-12-26 19:41:00,SystemResetWarning,0822.6,5.02,000.00,018.8,017.9,000.0,027.2,020.0,15.1,0000.0,0007.34,0002.39,0001.59
2023-12-26 19:42:00,SystemResetWarning,0822.7,5.00,000.00,018.8,017.9,000.0,027.2,020.0,15.1,0000.0,0005.57,0002.34,0001.59
2023-12-26 19:43:00,SystemResetWarning,0823.1,4.99,000.00,018.8,017.8,000.0,027.2,020.0,15.4,0000.0,0005.34,0002.38,0001.61
2023-12-26 19:44:00,SystemResetWarning,0823.0,4.99,000.00,018.8,017.8,000.0,027.2,020.0,15.4,0000.0,0005.70,0002.45,0001.62
2023-12-26 19:45:00,SystemResetWarning,0823.0,5.00,000.00,018.8,017.8,000.0,027.2,020.0,15.1,0000.0,0006.19,0002.50,0001.65
2023-12-26 19:46:00,SystemResetWarning,0823.1,5.02,000.00,018.8,017.8,000.0,027.2,020.0,14.9,0000.0,0006.19,0002.53,0001.67
2023-12-26 19:47:00,SystemResetWarning,0823.0,4.99,000.00,018.8,017.9,000.0,027.2,020.0,15.1,0000.0,0005.70,0002.51,0001.68
2023-12-26 19:48:00,SystemResetWarning,0823.0,4.98,000.00,018.8,017.8,000.0,027.2,020.0,15.0,0000.0,0005.78,0002.53,0001.70
2023-12-26 19:49:00,SystemResetWarning,0823.1,5.01,000.00,018.8,017.8,000.0,027.2,020.0,14.9,0000.0,0005.98,0002.57,0001.72
2023-12-26 19:50:00,SystemResetWarning,0822.7,5.02,000.00,018.8,017.8,000.0,027.2,020.0,14.3,0000.0,0005.98,0002.60,0001.73
2023-12-26 19:51:00,SystemResetWarning,0822.8,4.99,000.00,018.8,017.8,000.0,027.2,020.0,14.3,0000.0,0006.59,0002.57,0001.74
2023-12-26 19:52:00,SystemResetWarning,0823.0,4.98,000.00,018.8,017.8,000.0,027.2,020.0,14.9,0000.0,0007.26,0002.65,0001.75
2023-12-26 19:53:00,SystemResetWarning,0823.0,5.01,000.00,018.8,017.8,000.0,027.2,020.0,14.7,0000.0,0007.13,0002.69,0001.77
2023-12-26 19:54:00,SystemResetWarning,0823.1,5.01,000.00,018.8,017.8,000.0,027.2,020.0,14.8,0000.0,0007.12,0002.68,0001.78
2023-12-26 19:55:00,SystemResetWarning,0823.0,5.01,000.00,018.8,017.9,000.0,027.2,020.0,15.3,0000.0,0006.90,0002.62,0001.78
2023-12-26 19:56:00,SystemResetWarning,0823.0,5.00,000.00,018.8,017.9,000.0,027.2,020.0,14.8,0000.0,0006.21,0002.58,0001.79
2023-12-26 19:57:00,SystemResetWarning,0822.7,5.00,000.00,018.8,017.9,000.0,027.2,020.0,15.1,0000.0,0007.17,0002.53,0001.78
2023-12-26 19:58:00,SystemResetWarning,0822.5,5.00,000.00,018.8,017.9,000.0,027.2,020.0,15.1,0000.0,0007.27,0002.52,0001.75
2023-12-26 19:59:00,SystemResetWarning,0822.7,5.00,000.00,018.8,017.9,000.0,027.2,020.0,15.1,0000.0,0007.35,0002.52,0001.71
